Location: Newark
(46.7000°N, 60.6000°W)
Time: 08:11:20
(UTC+00:00)

Transit 2A Rocket - Pass Details

Date: 31 October 2020
Orbit: 589 x 914 km, 66.7° (Epoch: 02 December)

Event Time Altitude Azimuth Distance (km) Brightness Sun altitude
Rises 22:21:12 0° 319° (NW) 3,260 8.8 -16.5°
Reaches altitude 10° 22:23:55 10° 310° (NW) 2,270 8.1 -16.9°
Maximum altitude 22:28:24 31° 249° (WSW) 1,221 6.7 -17.7°
Drops below altitude 10° 22:32:32 10° 188° (S) 2,076 7.4 -18.4°
Sets 22:34:55 0° 177° (S) 2,937 8.0 -18.8°
